Location: Krakow
(50.0830°N, 19.9170°E)
Time: 11:05:55
(UTC+01:00)

A-11 Canister half - Visible Passes

Search period start: 28 January 2023 00:00
Search period end: 07 February 2023 00:00
Orbit: 1514 x 1685 km, 47.2° (Epoch: 26 January)

Date Brightness Start Highest point End Pass type
(mag) Time Alt. Az. Time Alt. Az. Time Alt. Az.
28 Jan 9.8 17:53:37 10° W 18:02:20 47° SSW 18:11:01 10° SE visible
28 Jan 10.9 19:59:52 10° W 20:05:22 18° SW 20:10:53 10° SSW visible
29 Jan 9.8 17:30:40 10° W 17:39:28 49° SSW 17:48:12 10° SE visible
29 Jan 10.9 19:36:43 10° W 19:42:33 19° SW 19:48:26 10° S visible
30 Jan 9.8 17:07:43 10° W 17:16:35 51° SSW 17:25:22 10° SE visible
30 Jan 10.9 19:13:35 10° W 19:19:46 20° SW 19:25:56 10° S visible
31 Jan 10.9 18:50:29 10° W 18:56:58 22° SW 19:03:25 10° S visible
01 Feb 10.9 18:27:25 10° W 18:34:09 23° SW 18:40:52 10° S visible
02 Feb 10.9 18:04:21 10° W 18:11:20 25° SW 18:18:17 10° S visible
03 Feb 10.9 17:41:19 10° W 17:48:31 26° SW 17:55:41 10° S visible
04 Feb 11.0 17:18:17 10° W 17:25:41 28° SW 17:33:03 10° S visible
